Regional Weather Roundup
Issued by NWS

Home | Current Version | Previous Version | Text Only | Print | Product List | Glossary Off
Versions: 1 2 3 4 5 6 7 8 9 10 11 12 13 14 15 16 17 18 19 20 21 22 23 24 25 26 27 28 29 30 31 32 33 34 35 36 37 38 39 40 41 42 43 44 45 46 47 48 49 50

000
ASUS43 KDMX 270803
RWRIA

WEATHER ROUNDUP FOR IOWA
NATIONAL WEATHER SERVICE DES MOINES IA
300 AM CDT TUE SEP 27 2016

NOTE: "FAIR" INDICATES FEW OR NO CLOUDS BELOW 12,000 FEET WITH NO
SIGNIFICANT WEATHER AND/OR OBSTRUCTIONS TO VISIBILITY.

* - THESE STATIONS ARE NOT NWS STATIONS...THUS NOT UNDER NWS
QUALITY CONTROL.  THEY ALSO DO NOT REPORT WEATHER SUCH
AS PRECIPITATION OR FOG.

IAZ001>003-012>014-020>022-031>034-043>046-270900-
   NORTHWEST IOWA

CITY           SKY/WX    TMP DP  RH WIND       PRES   REMARKS
CARROLL *      CLEAR     46  43  87 W8        30.01F
CHEROKEE *     CLEAR     48  39  71 W3        30.02F
DENISON *      CLEAR     45  43  93 CALM      30.02S
LE MARS *      CLEAR     46  41  81 CALM      30.04F
ORANGE CITY *  CLEAR     46  39  76 NW5       30.03F
SHELDON *      CLEAR     45  37  76 W6        30.01S
SIOUX CITY     CLEAR     52  43  71 CALM      30.05S
SPENCER        CLEAR     44  38  79 W8        30.00S
STORM LAKE *   CLEAR     48  39  71 W9        30.02F
$$

IAZ055>058-069>071-079>083-090>094-270900-
   SOUTHWEST IOWA

CITY           SKY/WX    TMP DP  RH WIND       PRES   REMARKS
ATLANTIC *     CLEAR     48  45  87 CALM      30.03F
AUDUBON *      CLEAR     46  43  87 CALM      30.04S
CLARINDA *       N/A     46  46 100 MISG      30.06F
COUNCIL BLFS * CLEAR     55  46  71 W5        30.05S
CRESTON *      CLEAR     50  45  81 W5        30.04F
HARLAN  *      PTCLDY    52  45  76 W9        30.07S
LAMONI         CLEAR     53  45  74 SW6       30.03F HAZE
RED OAK *      CLEAR     48  48 100 CALM      30.04F
SHENANDOAH *   CLEAR     48  46  93 CALM      30.05F
$$

IAZ047>049-059>061-072>074-084-270900-
   CENTRAL IOWA

CITY           SKY/WX    TMP DP  RH WIND       PRES   REMARKS
AMES           CLEAR     55  42  61 NW9       29.98F
ANKENY *         N/A    N/A N/A N/A MISG        N/A
BOONE *        CLEAR     52  41  66 NW10      29.98F
CHARITON *       N/A     50  46  87 W8        30.00F
DES MOINES     CLEAR     53  44  71 SW5       29.99F
GRINNELL*      CLEAR     51  42  71 W6        29.98F
KNOXVILLE *    CLEAR     52  43  71 W7        29.98F
MARSHALLTOWN   CLEAR     48  42  80 W6        29.96F
NEWTON *       CLEAR     48  43  81 W7        29.97F
PELLA *        CLEAR     55  45  67 W7        30.00F
PERRY *          N/A     47  44  87 W8        30.00F
$$

IAZ004>006-015-016-023>025-035-036-270900-
   NORTH CENTRAL IOWA

CITY           SKY/WX    TMP DP  RH WIND       PRES   REMARKS
ALGONA *       CLEAR     46  37  71 W8        29.97F
CLARION *      CLEAR     45  39  81 W5        29.97S
ESTHERVILLE    CLEAR     43  37  79 W7        29.97F
FORT DODGE *   CLEAR     48  37  66 CALM      29.99F
MASON CITY     CLEAR     46  37  71 W10       29.95F
FOREST CITY *    N/A     43  37  81 W5        29.94F
WEBSTER CITY * CLEAR     46  43  87 W7        29.96F
IOWA FALLS *     N/A     46  41  81 W7        29.97F
$$

IAZ007>011-017>019-026>030-037>042-050>054-066-270900-
   NORTHEAST IOWA

CITY           SKY/WX    TMP DP  RH WIND       PRES   REMARKS
CEDAR RAPIDS   CLEAR     48  42  80 SW6       29.94S
CHARLES CITY * CLEAR     46  37  71 W7        29.92F
CLINTON *      CLEAR     46  43  89 W8        29.93F
DECORAH *      CLEAR     48  37  66 VRB5      29.87F
DUBUQUE        CLEAR     49  39  68 W9        29.90F
MONTICELLO *   CLEAR     48  41  76 W3        29.92S
OELWEIN *      CLEAR     46  39  76 W6        29.92F
WATERLOO       CLEAR     49  39  68 W6        29.92F
$$

IAZ064-065-067-068-078-270900-
   EAST CENTRAL IOWA

CITY           SKY/WX    TMP DP  RH WIND       PRES   REMARKS
DAVENPORT      CLEAR     52  43  71 W9        29.94F
IOWA CITY      CLEAR     49  43  80 W7        29.97F
MUSCATINE *    CLEAR     54  43  66 W6        29.97S
QUAD CITIES    CLEAR     52  43  71 W7        29.94F
$$

IAZ062-063-075>077-085>089-095>099-270900-
   SOUTHEAST IOWA

CITY           SKY/WX    TMP DP  RH WIND       PRES   REMARKS
BURLINGTON     CLEAR     56  45  66 NW6       29.97F
FAIRFIELD *    CLEAR     50  45  81 W7        29.98F
FORT MADISON * CLEAR     55  45  67 W5        29.99F
KEOKUK *       CLEAR     54  45  71 W8        29.98F
OSKALOOSA *      N/A     49  43  79 W6        29.99F
OTTUMWA        CLEAR     49  42  77 W6        29.99F
WASHINGTON *     N/A    N/A N/A N/A MISG        N/A
$$

ABBREVIATIONS USED IN REMARKS
   TC - TEMPERATURES IN CELSIUS
  WCI - WIND CHILL INDEX
   HX - HEAT INDEX
  VSB - VISIBILITY
$$





USA.gov is the U.S. government's official web portal to all federal, state and local government web resources and services.